« Back
NWS Peachtree City, Ga » Text Product » GA Regional Weather Roundup


Printer-friendly Version
Current Version              Previous Versions:   1  2  3  4  5  6  7  8  9  

Regional Weather Roundup

100
ASUS42 KFFC 230503
RWRGA
WEATHER ROUNDUP FOR GEORGIA
NATIONAL WEATHER SERVICE PEACHTREE CITY GA
100 AM EDT SAT JUL 23 2016

NOTE: "FAIR" INDICATES FEW OR NO CLOUDS BELOW 12,000 FEET WITH NO
SIGNIFICANT WEATHER AND/OR OBSTRUCTIONS TO VISIBILITY.

* = USE WITH CAUTION. THE STATIONS MARKED WITH AN ASTERISK MAY NOT
REPORT WEATHER SUCH AS PRECIPITATION, FOG, OR THUNDER AND ARE NOT
QUALITY CONTROLLED BY NWS.

THE REMARK "TC" DENOTES TEMPERATURE READING IN DEGREES CELSIUS.

GAZ001>058-230600-
NORTH GEORGIA

CITY           SKY/WX    TMP DP  RH WIND       PRES   REMARKS
ATLANTA        PTCLDY    79  72  79 SW3       30.07S
ATHENS         CLEAR     76  72  87 CALM      30.06S
CHAMBLEE       CLEAR     78  72  81 CALM      30.07S
PEACHTREE CITY CLEAR     74  72  93 CALM      30.07S
ROME           CLEAR     78  72  81 SW3       30.03F
WEST ATLANTA   CLEAR     81  70  69 CALM      30.06S
GAINESVILLE    CLEAR     77  71  82 CALM      30.10F
CARTERSVILLE   PTCLDY    76  72  87 CALM      30.05F


CITY           SKY/WX    TMP DP  RH WIND       PRES   REMARKS
DALTON*        CLOUDY    75  75 100 CALM      30.04F
MARIETTA       CLEAR     80  72  75 VRB1      30.07S
CANTON*        CLEAR     77  66  69 CALM      30.09S
BLAIRSVILLE*     N/A    N/A N/A N/A MISG      30.13F
$$

GAZ059>098-102>109-230600-
CENTRAL GEORGIA

CITY           SKY/WX    TMP DP  RH WIND       PRES   REMARKS
AUGUSTA-BUSH   PTCLDY    76  72  87 S5        30.04R
AUGUSTA-DANIEL PTCLDY    83  70  64 SW6       30.06R
COLUMBUS       CLEAR     80  72  76 W5        30.04S
MACON          PTCLDY    76  74  93 S3        30.04F
ROBINS AFB     PTCLDY    76  75  95 CALM      30.04S


CITY           SKY/WX    TMP DP  RH WIND       PRES   REMARKS
LAGRANGE*      CLEAR     74  74 100 CALM      30.06R
MILLEDGEVILLE* PTCLDY    77  77 100 CALM      30.05S
$$

GAZ099>101-110>166-230600-
SOUTH GEORGIA

CITY           SKY/WX    TMP DP  RH WIND       PRES   REMARKS
SAVANNAH       PTCLDY    80  74  81 SW6       30.05S
VALDOSTA       MOCLDY    75  73  93 CALM      30.06S
ALMA           CLOUDY    76  74  93 CALM      30.05F
ST SIMONS      CLEAR     81  74  79 W8        30.05S
FT STEWART     PTCLDY    79  74  83 MISG      30.02F
ALBANY         CLEAR     77  72  84 CALM      30.06F
HUNTER AFB     PTCLDY    81  79  93 SW6       30.02F HX  90
MOODY AFB      PTCLDY    75  71  87 CALM      30.05F
BRUNSWICK      CLEAR     81  75  83 W7        30.06S


CITY           SKY/WX    TMP DP  RH WIND       PRES   REMARKS
BAINBRIDGE*    CLEAR     77  73  88 CALM      30.05S
MOULTRIE*      CLEAR     77  72  83 CALM      30.07F
VIDALIA*       PTCLDY    79  70  73 S6        30.05F
WAYCROSS*      CLOUDY    80  76  89 S3        30.06F
DOUGLAS*       MOCLDY    77  72  83 NW3       30.07F
$$




USA.gov is the U.S. government's official web portal to all federal, state and local government web resources and services.